Change the Weather History Date:

Saturday, January 4, 2014

  Actual Average Record
Temperature  
Mean Temperature 19 °F -  
Max Temperature 28 °F 31 °F 48 °F (2007)
Min Temperature 10 °F 16 °F -2 °F (1999)
Degree Days  
Heating Degree Days 46    
Moisture  
Dew Point 11 °F    
Average Humidity 66    
Maximum Humidity 78    
Minimum Humidity 55    
Precipitation  
Precipitation 0.00 in - - ()
Sea Level Pressure  
Sea Level Pressure 30.03 in    
Wind  
Wind Speed 11 mph (SSW)    
Max Wind Speed 18 mph    
Max Gust Speed 26 mph    
Visibility 10 miles    
Events Snow    
Averages and records for this station are not official NWS values.
T = Trace of Precipitation, MM = Missing Value Source: NWS Daily Summary

Daily Weather History Graph

Daily Weather History Graph

Search for Another Location

Airport or City:

Trip Planner

Search our weather history database for the weather conditions in past years. The results will help you decide how hot, cold, wet, or windy it might be!

Date:

Astronomy

Jan. 04, 2014 Rise Set
Actual Time 8:03 AM EST 5:16 PM EST
Civil Twilight 7:32 AM EST 5:47 PM EST
Nautical Twilight 6:57 AM EST 6:23 PM EST
Astronomical Twilight 6:23 AM EST 6:57 PM EST
Moon 10:04 AM EST (1/4) 9:40 PM EST (1/4)
Length of Visible Light 10h 15m
Length of Day
9h 12m
Waxing Crescent, 15% of the Moon is Illuminated
Jan 4
Waxing Crescent
Jan 7
First Quarter
Jan 15
Full
Jan 24
Last Quarter
Jan 30
New

Hourly Weather History & Observations

Time (EST) Temp. Windchill Dew Point Humidity Pressure Visibility Wind Dir Wind Speed Gust Speed Precip Events Conditions
12:53 AM 10.0 °F -4.5 °F 1.0 °F 67% 30.15 in 10.0 mi South 11.5 mph 20.7 mph N/A   Clear
1:53 AM 10.0 °F -6.5 °F 1.9 °F 70% 30.13 in 10.0 mi South 15.0 mph 20.7 mph N/A   Clear
2:53 AM 10.0 °F -5.2 °F 1.9 °F 70% 30.12 in 10.0 mi SSW 12.7 mph 21.9 mph N/A   Clear
3:53 AM 10.0 °F -5.9 °F 1.9 °F 70% 30.09 in 10.0 mi SSW 13.8 mph 21.9 mph N/A   Clear
4:53 AM 10.9 °F -4.1 °F 3.0 °F 70% 30.06 in 10.0 mi SSW 12.7 mph 20.7 mph N/A   Clear
5:53 AM 12.0 °F -1.3 °F 3.0 °F 67% 30.04 in 10.0 mi SSW 10.4 mph 20.7 mph N/A   Clear
6:53 AM 12.0 °F -2.7 °F 3.9 °F 70% 30.03 in 10.0 mi SSW 12.7 mph - N/A   Clear
7:53 AM 12.9 °F -0.2 °F 5.0 °F 71% 30.01 in 10.0 mi SSW 10.4 mph - N/A   Clear
8:53 AM 16.0 °F 2.3 °F 6.1 °F 65% 30.00 in 10.0 mi SSW 12.7 mph 20.7 mph N/A   Clear
9:53 AM 19.0 °F 5.0 °F 7.0 °F 59% 29.99 in 10.0 mi SW 15.0 mph 21.9 mph N/A   Clear
10:53 AM 21.9 °F 9.8 °F 9.0 °F 58% 29.99 in 10.0 mi South 12.7 mph 20.7 mph N/A   Clear
11:53 AM 24.1 °F 10.1 °F 10.0 °F 55% 29.97 in 10.0 mi SW 18.4 mph 26.5 mph N/A   Clear
12:53 PM 27.0 °F 13.9 °F 12.9 °F 56% 29.94 in 10.0 mi SSW 18.4 mph 24.2 mph N/A   Clear
1:53 PM 28.0 °F 16.5 °F 15.1 °F 58% 29.93 in 10.0 mi SW 15.0 mph 24.2 mph N/A   Clear
2:53 PM 28.9 °F 18.6 °F 15.1 °F 56% 29.95 in 10.0 mi SW 12.7 mph - N/A   Clear
3:53 PM 28.9 °F 19.8 °F 16.0 °F 58% 29.98 in 10.0 mi SW 10.4 mph - N/A   Clear
4:53 PM 28.0 °F 20.0 °F 17.1 °F 63% 29.99 in 10.0 mi SSW 8.1 mph - N/A   Clear
5:53 PM 28.0 °F 19.3 °F 18.0 °F 66% 30.00 in 10.0 mi SSW 9.2 mph - N/A   Clear
6:53 PM 28.0 °F 19.3 °F 19.0 °F 69% 30.02 in 10.0 mi SSW 9.2 mph - N/A   Overcast
7:53 PM 28.0 °F 21.7 °F 19.0 °F 69% 30.03 in 10.0 mi SSW 5.8 mph - N/A   Overcast
8:53 PM 28.9 °F 25.2 °F 19.0 °F 67% 30.04 in 10.0 mi SW 3.5 mph - N/A   Overcast
9:53 PM 28.9 °F - 19.9 °F 69% 30.04 in 10.0 mi Calm Calm - N/A   Overcast
10:53 PM 28.9 °F - 21.0 °F 72% 30.05 in 10.0 mi Calm Calm - N/A   Overcast
11:53 PM 28.0 °F - 21.9 °F 78% 30.06 in 3.0 mi Calm Calm - 0.00 in Snow Light Snow